Regional Weather Roundup
Issued by NWS Wakefield, VA

Home | Current Version | Previous Version | Graphics & Text | Print | Product List | Glossary On
Versions: 1 2 3 4 5 6 7 8 9 10 11 12 13 14 15 16 17 18 19 20 21 22 23 24 25 26 27
000
ASUS41 KAKQ 260715
RWRAKQ

REGIONAL WEATHER ROUNDUP
NATIONAL WEATHER SERVICE WAKEFIELD VA
300 AM EDT MON JUN 26 2017

Note: "fair" indicates few or no clouds below 12,000 feet with no
significant weather and/or obstructions to visibility. * = Denotes
station may not report precipitation (e.g., rain,snow,etc.),
thunder or fog.

VAZ042-051-052>054-056-260800-
NORTHERN VIRGINIA

CITY           SKY/WX    TMP DP  RH WIND       PRES   REMARKS
WASH NATIONAL  PTCLDY    73  46  38 NW8       30.05S
DULLES         CLEAR     64  47  53 W3        30.06S
FORT BELVOIR   CLEAR     56  51  82 CALM      30.05S
QUANTICO       PTCLDY    64  58  80 NW7       30.05F
FREDERICKSBRG* CLEAR     60  55  84 CALM      30.05S
STAFFORD*      CLEAR     53  53 100 CALM      30.10S
WARRENTON      PTCLDY    55  49  83 CALM      30.06S
CULPEPER*      CLEAR     55  53  93 CALM      30.07F
MANASSAS*      CLEAR     57  54  89 CALM      30.07S
LEESBURG*      CLEAR    N/A N/A N/A NW3       30.07S
WINCHESTER     CLEAR     57  48  72 CALM      30.08S
FRONT ROYAL*   SUNNY     57  50  77 CALM      30.08R
LURAY*         SUNNY     57  52  82 S3        30.10R
$$

VAZ048-049-060>072-079>083-260800-
CENTRAL AND SOUTH CENTRAL VIRGINIA

CITY           SKY/WX    TMP DP  RH WIND       PRES   REMARKS
RICHMOND       CLEAR     66  59  78 CALM      30.06S
CHESTERFIELD*  FAIR      61  58  90 CALM      30.07F
PETERSBURG*    PTCLDY    58  56  94 CALM      30.08S
HANOVER        CLEAR     62  57  83 CALM      30.07F
TAPPAHANNOCK*  CLEAR     60  60 100 W3        30.06S
QUINTON*       FAIR      61  61 100 CALM      30.06S
CHARLOTTSVILLE PTCLDY    66  48  52 SW3       30.08F
GORDONSVILLE*  SUNNY     56  53  88 CALM      30.07F
ORANGE*        PTCLDY    55  50  82 CALM      30.08S
LOUISA*        PTCLDY    59  55  88 W3        30.07S
BUMPASS*       FAIR      56  53  92 CALM      30.07S
FARMVILLE*     CLEAR     56  53  90 CALM      30.08F
CREWE*         FAIR      56  52  86 CALM      30.08F
FORT PICKETT*  FAIR      62  51  67 W3        30.09S
CHASE CITY*    FAIR      60  60  99 CALM      30.10S
CLARKSVILLE*   FAIR      59  59 100 CALM      30.10S
SOUTH HILL*    CLEAR     64  57  80 CALM      30.15S
LAWRENCEVILLE* FAIR      62  58  87 CALM      30.08F
EMPORIA*       CLEAR     61  59  94 CALM      30.09F
$$

VAZ088>098-260800-
SOUTHEAST VIRGINIA

CITY           SKY/WX    TMP DP  RH WIND       PRES   REMARKS
NORFOLK        CLEAR     75  63  66 W5        30.03S
VIRGINIA BEACH CLEAR     69  60  73 NW5       30.02S
NORFOLK NAVAL  PTCLDY    74  62  66 NW7       30.05S
WEST POINT*    CLEAR     63  60  89 CALM      30.06S
SALUDA*        FAIR      65  64  96 CALM      30.04S
NEWPORT NEWS   CLEAR     66  61  84 CALM      30.04S
LANGLEY AFB    CLEAR     68  62  83 W5        30.03F
FORT EUSTIS    CLEAR     71  62  73 NW7       30.02S
WILLIAMSBURG*  CLEAR     68  63  83 CALM      30.06R
HR EXEC AP*    FAIR      61  57  88 NW5       30.03R
FRANKLIN*      CLEAR     64  59  82 NW3       30.06S
US460-WAKEFLD  CLEAR     64  60  87 CALM      30.06S
$$

VAZ020-022-025-037-045-260800-
WEST CENTRAL AND SOUTHWEST VIRGINIA

CITY           SKY/WX    TMP DP  RH WIND       PRES   REMARKS
STAUNTON*      CLEAR     52  49  89 CALM      30.13S
WAYNESBORO*    SUNNY     55  50  84 SW3       30.12S
HOT SPRINGS VA PTCLDY    55  36  47 W14       30.18F
LYNCHBURG      CLEAR     54  50  86 CALM      30.12F
DANVILLE       CLEAR     57  57 100 W5        30.12F
SOUTH BOSTON*  FAIR      57  56  96 CALM      30.10F
MARTINSVILLE   CLEAR     53  52  97 CALM      30.17F
ROANOKE        CLEAR     59  52  77 CALM      30.15F
BLACKSBURG     CLEAR     52  49  89 CALM      30.20F
DUBLIN*        CLEAR     56  46  69 W6        30.18F
MARION*        CLEAR     51  47  88 CALM      30.22F
HILLSVILLE*    CLEAR     54  44  67 CALM      30.19F
RICHLANDS*     FAIR      57  47  70 W5        30.21S
WISE*          MOCLDY    55  46  71 CALM      30.22F
ABINGDON*      CLEAR     55  51  88 CALM      30.20S
$$

MDZ021>025-VAZ099-100-260800-
SOUTHERN MARYLAND AND THE DELMARVA PENINSULA

CITY           SKY/WX    TMP DP  RH WIND       PRES   REMARKS
PATUXENT RIVER MOCLDY    68  52  56 W6        30.03F
BAY BRIDGE APT CLEAR     75  52  43 NW14      30.03S
LEONARDTOWN    PTCLDY    63  54  72 W3        30.05F
DOVER          PTCLDY    69  55  61 W7        30.01S
GEORGETOWN     PTCLDY    69  57  65 CALM      30.03S
EASTON         CLEAR     72  51  46 CALM      30.07S
CAMBRIDGE      PTCLDY    72  52  49 NW9       30.03S
SALISBURY      CLEAR     61  61 100 CALM      30.03S
OCEAN CITY     CLEAR     67  58  72 NW6       30.02F
WALLOPS ISLAND CLEAR     68  57  68 NW3       30.02F
ACCOMACK*      CLEAR     66  59  77 CALM      30.03S
$$

NCZ012>017-030>032-260800-
NORTH CENTRAL AND EASTERN NORTH CAROLINA

CITY           SKY/WX    TMP DP  RH WIND       PRES   REMARKS
ROANOKE RAPIDS FAIR      66  59  77 NW3       30.08S
RALEIGH        PTCLDY    67  60  78 NE5       30.10S
ELIZABETH CITY CLEAR     68  63  84 W5        30.04S
AHOSKIE*         N/A     66  62  86 CALM      30.06F
EDENTON*       CLEAR     71  63  78 CALM      30.06S
CURRITUCK*     NOT AVBL
KILL DEVIL HLS CLEAR     76  61  61 NW3       30.03S
MANTEO         PTCLDY    76  61  59 N5        30.04F
CAPE HATTERAS  CLOUDY    79  66  64 N7        30.04S
TARBORO*       NOT AVBL
GOLDSBORO      PTCLDY    70  70  98 CALM      30.06S
WASHINGTON     CLEAR    N/A N/A N/A CALM      30.07S
GREENVILLE     CLEAR     70  64  83 CALM      30.08S
NEW BERN       CLOUDY    73  68  84 NW5       30.08R
WILMINGTON     CLOUDY    73  71  93 NW3       30.06F
$$

VAZ048-260800-
ELSEWHERE

CITY           SKY/WX    TMP DP  RH WIND       PRES   REMARKS
HARRISBURG PA  PTCLDY    67  51  56 N5        30.03S
BALTIMORE      CLEAR     61  51  70 W7        30.04R
ANNAPOLIS      CLEAR     67  52  58 NW5       30.03S
ANDREWS AFB    CLEAR     63  49  58 CALM      30.04S
PHILADELPHIA   PTCLDY    71  46  40 NW9       30.01S
HENDERSON NC   CLEAR     63  53  69 NW3       30.10F
GREENSBORO     CLEAR     64  57  78 N3        30.12F
ROCKY MOUNT    CLEAR     68  63  84 NW5       30.08S
$$

VAZ100-260800-
MARINE

STATION/POSITION TIME  TEMP    WIND        PRES    WAVE   SWELL
                       AIR SEA DIR/SP/G            HT/PER HT/PER
                 (UTC) (F)     (DEG/KT/KT) (MB)    (FT/S) (FT/S)
BRANDYWINE LGT   0636          290/  8/ 10 1016.8S
CAPE MAY NJ      0636          290/  6/  8 1016.2R
LEWES DE         0636          270/  6/  7 1016.5F
15NM E FENWICK I 0650   71 68  290/  6/  8 1016.8F   2/ 7   2/ 7
OCEAN-CITY-INLET 0636          320/  6/  7 1016.7F
WACHAPREAGUE VA  0636          310/  2/  3 1016.5S
THOMAS POINT MD  0700   73 78  300/ 11/ 12   N/A
GOOSES REEF MD   0700   75 79  330/ 10/ 12 1017.7    1/ 2
COVE POINT MD    0636          310/  8/ 10 1017.5F
SOLOMONS ISLAND  0636          320/  5/  8   N/A
BISHOPS HEAD MD  0636          330/  5/  6 1016.8F
PINEY POINT MD   0648          350/ 10/ 11   N/A
POTOMAC MD       0700   76 79  340/ 10/ 12 1016.1    1
CAMBRIDGE MD     0636                      1017.6F
LEWISETTA VA     0648          310/  5/  6 1016.9F
RAPPAHANNOCK LGT 0648          340/ 18/ 20 1017.4F
STINGRAY PT      0650   76      10/  8/ 10 1016.8F
YORK RVR RNG VA  0648          340/  7/  8 1017.4S
YORKTOWN VA      0648          250/  3/  4 1016.8F
JAMESTOWN VA     0700   74 83  310/  8/ 10   N/A     0
DOMINION TERM VA 0648          320/  9/ 11 1017.2F
KIPTOPEKE VA     0648          340/  9/ 12   N/A
CHES BAY BRIDGE  0648          310/ 12/ 13 1016.8F
CAPE HENRY VA    0648          280/  8/ 12   N/A
WILLOUBY STN VA  0648          310/  9/ 11 1017.0F
S CRANEY ISL VA  0648          300/  6/  9 1016.9F
CAPE HENRY BUOY  0700      74                N/A     2/ 8
1ST LANDING BUOY 0700   75 73              1017.0    1/ 2
CAPE CHARLES BUO 0651      71                N/A     1/11
64NM E OF VA BCH 0650   73 74  230/  4/  4 1016.7F   2/ 8   2/ 8
DUCK PIER NC     0648          310/ 12/ 13 1016.7R
44100 DUCK FRF   0605      73                N/A     2/ 8
OREGON INLET NC  0642          300/  9/ 13 1016.9F
HATTERAS NC      0648          340/ 11/ 13 1017.0S
DIAMOND SHLS NC  0650   78 80  280/ 12/ 14 1017.0S   2/ 9   2/ 9
CAPE LOOKOUT NC  0600   78     280/  8/ 10 1017.3R
$$




USA.gov is the U.S. government's official web portal to all federal, state and local government web resources and services.